Terminal Aerodrome Forecast
Issued by NWS Duluth, MN

Home | Current Version | Previous Version | Text Only | Print | Product List | Glossary On
Versions: 1 2 3 4 5 6 7 8 9 10 11 12 13 14 15
000
FTUS43 KDLH 252300
TAFINL
TAF
KINL 252336Z 2600/2624 13007KT P6SM -RA FEW050 BKN080
     FM260200 VRB03KT P6SM OVC070
     FM261300 23006KT P6SM SCT070=

USA.gov is the U.S. government's official web portal to all federal, state and local government web resources and services.